KE7WB Weather Reports


time (UTC)temp
C
wind
direction
speed
KPH
gust
KPH
rain 1hr
cm
rain 24hr
cm
rain mn
cm
humidity
%
barometer
mb
20260507015503 13 97 3.2 6.4 0.00 0.00 0.00 76 1019.6
20260507015217 13 98 3.2 6.4 0.00 0.00 0.00 76 1019.6
20260507014503 13 161 3.2 6.4 0.00 0.00 0.00 76 1019.6
20260507014003 13 167 3.2 6.4 0.00 0.00 0.00 76 1019.2
20260507013718 13 156 1.6 6.4 0.00 0.00 0.00 76 1019.2
20260507013003 13 141 3.2 8.0 0.00 0.00 0.00 75 1019.6
20260507012718 13 164 3.2 8.0 0.00 0.00 0.00 76 1019.2
20260507012003 13 145 3.2 8.0 0.00 0.00 0.00 75 1019.6
20260507011718 13 136 3.2 8.0 0.00 0.00 0.00 74 1019.6
20260507011003 14 101 3.2 9.7 0.00 0.00 0.00 74 1019.6
20260507010718 14 90 3.2 9.7 0.00 0.00 0.00 74 1019.6
20260507010003 13 214 4.8 14.5 0.00 0.00 0.00 75 1019.6
20260507005503 13 221 4.8 14.5 0.00 0.00 0.00 74 1019.6
20260507005216 13 219 4.8 14.5 0.00 0.00 0.00 74 1019.6
20260507004503 13 227 4.8 12.9 0.00 0.00 0.00 74 1019.6
20260507004003 14 140 3.2 8.0 0.00 0.00 0.00 73 1019.6
20260507003503 14 117 3.2 6.4 0.00 0.00 0.00 72 1019.6
20260507003003 14 113 3.2 6.4 0.00 0.00 0.00 71 1019.6
20260507002717 14 113 3.2 6.4 0.00 0.00 0.00 71 1019.6
20260507002003 14 108 3.2 8.0 0.00 0.00 0.00 72 1019.6
20260507001503 14 178 4.8 16.1 0.00 0.00 0.00 72 1019.6
20260507001003 13 222 6.4 16.1 0.00 0.00 0.00 72 1019.6
20260507000503 14 212 4.8 14.5 0.00 0.00 0.00 71 1019.6
20260507000003 14 128 3.2 9.7 0.00 0.00 0.00 70 1019.6
20260506235503 13 143 3.2 11.3 0.00 0.00 0.00 73 1019.6
20260506235004 13 187 4.8 11.3 0.00 0.00 0.00 73 1019.6
20260506234503 13 192 4.8 11.3 0.00 0.00 0.00 73 1019.2
20260506234003 13 214 6.4 16.1 0.00 0.00 0.00 72 1019.6
20260506233503 13 212 6.4 16.1 0.00 0.00 0.00 72 1019.6
20260506233003 14 160 4.8 11.3 0.00 0.00 0.00 70 1019.6
20260506232717 14 161 3.2 8.0 0.00 0.00 0.00 69 1019.6
20260506232003 14 104 3.2 8.0 0.00 0.00 0.00 69 1019.6
20260506231717 14 108 3.2 8.0 0.00 0.00 0.00 69 1019.6
20260506231003 14 109 4.8 12.9 0.00 0.00 0.00 69 1019.6
20260506230503 14 121 4.8 12.9 0.00 0.00 0.00 70 1019.6
20260506230003 14 196 3.2 11.3 0.00 0.00 0.00 70 1019.6
20260506225503 14 146 4.8 11.3 0.00 0.00 0.00 69 1019.6
20260506225003 14 116 3.2 6.4 0.00 0.00 0.00 70 1019.6
20260506224503 14 132 3.2 6.4 0.00 0.00 0.00 71 1019.6
20260506224003 14 168 3.2 16.1 0.00 0.00 0.00 71 1019.6
20260506223503 14 130 4.8 16.1 0.00 0.00 0.00 71 1019.6
20260506223003 14 106 4.8 9.7 0.00 0.00 0.00 72 1019.6
20260506222716 13 110 4.8 9.7 0.00 0.00 0.00 72 1019.6
20260506222003 13 108 3.2 9.7 0.00 0.00 0.00 72 1019.9
20260506221503 13 160 3.2 11.3 0.00 0.00 0.00 73 1019.9
20260506221218 13 215 3.2 11.3 0.00 0.00 0.00 73 1019.9
20260506220503 13 184 4.8 11.3 0.00 0.00 0.00 73 1019.9
20260506220003 13 202 3.2 9.7 0.00 0.00 0.00 73 1019.9
20260506215503 13 137 4.8 9.7 0.00 0.00 0.00 72 1019.6
20260506215003 14 111 3.2 9.7 0.00 0.00 0.00 73 1019.9
20260506214503 14 110 3.2 8.0 0.00 0.00 0.00 72 1019.9
20260506214003 14 122 3.2 12.9 0.00 0.00 0.00 73 1019.9
20260506213503 13 160 3.2 12.9 0.00 0.00 0.00 74 1019.9
20260506213003 13 156 3.2 9.7 0.00 0.00 0.00 74 1019.9
20260506212718 13 135 3.2 9.7 0.00 0.00 0.00 74 1019.9
20260506212003 13 212 3.2 12.9 0.00 0.00 0.00 76 1019.9
20260506211503 13 234 4.8 14.5 0.00 0.00 0.00 76 1019.9
20260506211003 13 204 4.8 14.5 0.00 0.00 0.00 76 1019.6
20260506210503 13 141 3.2 9.7 0.00 0.00 0.00 77 1020.3
20260506210003 13 123 3.2 9.7 0.00 0.00 0.00 77 1019.9
20260506205503 13 99 3.2 6.4 0.00 0.00 0.00 78 1019.9
20260506205003 13 138 3.2 9.7 0.00 0.00 0.00 77 1019.9
20260506204503 13 138 3.2 9.7 0.00 0.00 0.00 78 1019.9
20260506204003 13 108 3.2 6.4 0.00 0.00 0.00 78 1019.6
20260506203503 13 110 3.2 8.0 0.00 0.00 0.00 77 1019.9
20260506203003 13 121 3.2 14.5 0.00 0.00 0.00 79 1019.9
20260506202503 13 107 3.2 14.5 0.00 0.00 0.00 77 1019.9
20260506202217 13 103 3.2 14.5 0.00 0.00 0.00 77 1019.9
20260506201718 13 100 3.2 6.4 0.00 0.00 0.00 77 1019.6
20260506201003 13 124 3.2 9.7 0.00 0.00 0.00 78 1019.6
20260506200503 13 147 4.8 12.9 0.00 0.00 0.00 79 1019.9
20260506200217 13 126 3.2 12.9 0.00 0.00 0.00 79 1019.9
20260506195503 13 122 3.2 9.7 0.00 0.00 0.00 79 1019.9
20260506195003 13 123 3.2 8.0 0.00 0.00 0.00 80 1019.6
20260506194503 13 184 4.8 8.0 0.00 0.00 0.00 80 1019.6
20260506194217 13 198 4.8 8.0 0.00 0.00 0.00 81 1019.9
20260506193503 13 119 4.8 9.7 0.00 0.00 0.00 81 1019.6
20260506193003 13 151 3.2 14.5 0.00 0.00 0.00 82 1019.6
20260506192503 12 220 3.2 14.5 0.00 0.00 0.00 85 1019.9
20260506192003 13 232 4.8 14.5 0.00 0.00 0.00 84 1019.6
20260506191503 13 232 6.4 14.5 0.00 0.00 0.00 83 1019.6
20260506191216 13 225 6.4 14.5 0.00 0.00 0.00 84 1019.6
20260506190503 13 244 4.8 9.7 0.00 0.00 0.00 83 1019.6
20260506190003 13 200 3.2 9.7 0.00 0.00 0.00 83 1019.6
20260506185503 12 204 3.2 9.7 0.00 0.00 0.00 84 1019.6
20260506185003 12 239 4.8 11.3 0.00 0.00 0.00 85 1019.6
20260506184717 12 226 4.8 11.3 0.00 0.00 0.00 86 1019.6
20260506184003 12 99 3.2 6.4 0.00 0.00 0.00 88 1019.6
20260506183503 12 98 3.2 8.0 0.00 0.00 0.00 89 1019.6
20260506183003 12 113 3.2 8.0 0.00 0.00 0.00 90 1019.6
20260506182503 12 124 3.2 6.4 0.00 0.00 0.00 90 1019.6
20260506182003 12 137 3.2 6.4 0.00 0.00 0.00 91 1019.6
20260506181717 12 152 3.2 6.4 0.00 0.00 0.00 91 1019.6
20260506181003 12 187 4.8 9.7 0.00 0.00 0.00 91 1019.6
20260506180503 12 204 4.8 9.7 0.00 0.00 0.00 91 1019.6
20260506180004 12 200 3.2 8.0 0.00 0.00 0.00 89 1019.2
20260506175503 12 142 4.8 9.7 0.00 0.00 0.00 89 1018.9
20260506175003 12 102 4.8 9.7 0.00 0.00 0.00 88 1019.2
20260506174503 12 116 4.8 6.4 0.00 0.00 0.00 87 1018.9
20260506174003 12 124 3.2 6.4 0.00 0.00 0.00 87 1019.2
20260506173717 12 124 3.2 6.4 0.00 0.00 0.00 87 1018.9
20260506173218 12 110 3.2 6.4 0.00 0.00 0.00 88 1019.2
20260506172503 12 73 3.2 9.7 0.00 0.00 0.00 88 1019.2
20260506172003 12 65 4.8 9.7 0.00 0.00 0.00 87 1019.2
20260506171717 12 86 4.8 9.7 0.00 0.00 0.00 87 1019.6
20260506171003 12 122 4.8 9.7 0.00 0.00 0.00 88 1019.2
20260506170503 12 158 3.2 9.7 0.00 0.00 0.00 89 1019.6
20260506170217 12 179 4.8 11.3 0.00 0.00 0.00 89 1019.2
20260506165503 12 167 4.8 12.9 0.00 0.00 0.00 90 1019.6
20260506165003 12 170 4.8 9.7 0.00 0.00 0.00 89 1019.2
20260506164503 12 233 4.8 9.7 0.00 0.00 0.00 90 1018.9
20260506164003 11 250 4.8 9.7 0.00 0.00 0.00 90 1018.9
20260506163503 12 244 4.8 9.7 0.00 0.00 0.00 90 1019.2
20260506163003 12 214 4.8 12.9 0.00 0.00 0.00 90 1019.2
20260506162503 12 200 4.8 12.9 0.00 0.00 0.00 90 1018.9
20260506162003 12 198 4.8 9.7 0.00 0.00 0.00 90 1018.9
20260506161503 12 185 3.2 9.7 0.00 0.00 0.00 89 1018.9
20260506161003 12 135 3.2 9.7 0.00 0.00 0.00 89 1018.9
20260506160718 12 125 3.2 9.7 0.00 0.00 0.00 89 1018.9
20260506160003 12 102 3.2 9.7 0.00 0.00 0.00 88 1018.5
20260506155503 12 80 3.2 8.0 0.00 0.00 0.00 88 1018.5
20260506155217 12 87 4.8 9.7 0.00 0.00 0.00 89 1018.5
20260506154503 12 137 4.8 9.7 0.00 0.00 0.00 89 1018.5
20260506154217 12 130 4.8 9.7 0.00 0.00 0.00 88 1018.5
20260506153503 12 95 3.2 9.7 0.00 0.00 0.00 89 1018.9
20260506153003 12 104 3.2 8.0 0.00 0.00 0.00 89 1018.9
20260506152503 12 163 3.2 8.0 0.00 0.00 0.00 89 1018.5
20260506152003 12 198 3.2 6.4 0.00 0.00 0.00 89 1018.9
20260506151503 12 193 3.2 8.0 0.00 0.00 0.00 89 1018.9
20260506151003 12 126 3.2 8.0 0.00 0.00 0.00 89 1018.9
20260506150503 12 97 3.2 8.0 0.00 0.00 0.00 89 1018.9
20260506150003 12 102 4.8 8.0 0.00 0.00 0.00 89 1018.5
20260506145503 12 101 4.8 9.7 0.00 0.00 0.00 89 1018.5
20260506145003 12 92 4.8 9.7 0.00 0.00 0.00 89 1018.5
20260506144503 12 85 4.8 8.0 0.00 0.00 0.00 89 1018.5
20260506144003 12 90 3.2 8.0 0.00 0.00 0.00 89 1018.5
20260506143503 12 85 3.2 8.0 0.00 0.00 0.00 89 1018.5
20260506143217 12 78 3.2 8.0 0.00 0.00 0.00 89 1018.5
20260506142503 12 96 4.8 8.0 0.00 0.00 0.00 90 1018.5
20260506142003 11 120 4.8 8.0 0.00 0.00 0.00 90 1018.5
20260506141503 11 118 4.8 9.7 0.00 0.00 0.00 90 1018.5
20260506141003 11 96 4.8 9.7 0.00 0.00 0.00 90 1018.5
20260506140503 12 87 3.2 9.7 0.00 0.00 0.00 89 1018.5
20260506140216 12 88 3.2 8.0 0.00 0.00 0.00 89 1018.5
20260506135503 12 92 4.8 9.7 0.00 0.00 0.00 89 1018.2
20260506135216 12 99 4.8 9.7 0.00 0.00 0.00 89 1018.5
20260506134503 12 118 4.8 8.0 0.00 0.00 0.00 89 1018.5
20260506134003 12 102 4.8 8.0 0.00 0.00 0.00 89 1018.2
20260506133503 12 113 3.2 6.4 0.00 0.00 0.00 89 1018.5
20260506133003 12 133 4.8 12.9 0.00 0.00 0.00 88 1018.5
20260506132503 12 135 4.8 12.9 0.00 0.00 0.00 88 1018.5
20260506132003 12 137 4.8 8.0 0.00 0.00 0.00 88 1018.2
20260506131503 12 55 3.2 8.0 0.00 0.00 0.00 88 1018.2
20260506131003 12 32 3.2 8.0 0.00 0.00 0.00 88 1018.2
20260506130717 12 25 3.2 8.0 0.00 0.00 0.00 88 1017.9
20260506130218 12 58 3.2 8.0 0.00 0.00 0.00 88 1017.9
20260506125503 12 69 3.2 8.0 0.00 0.00 0.00 88 1017.9
20260506125003 12 88 4.8 8.0 0.00 0.00 0.00 88 1017.9
20260506124503 12 121 4.8 9.7 0.00 0.00 0.00 87 1018.2
20260506124003 12 160 4.8 9.7 0.00 0.00 0.00 88 1017.9
20260506123503 12 183 3.2 8.0 0.00 0.00 0.00 87 1017.9
20260506123218 12 165 3.2 8.0 0.00 0.00 0.00 87 1017.9
20260506122717 12 136 3.2 9.7 0.00 0.00 0.00 87 1017.9
20260506122003 12 150 4.8 9.7 0.00 0.00 0.00 87 1017.5
20260506121503 12 126 3.2 6.4 0.00 0.00 0.00 87 1017.9
20260506121003 12 162 3.2 11.3 0.00 0.00 0.00 87 1017.9
20260506120503 12 196 3.2 11.3 0.00 0.00 0.00 87 1017.5
20260506120003 12 181 4.8 9.7 0.00 0.00 0.00 87 1017.9
20260506115503 12 199 4.8 11.3 0.00 0.00 0.00 87 1017.5
20260506115003 12 271 4.8 11.3 0.00 0.00 0.00 87 1017.5
20260506114503 12 331 3.2 11.3 0.00 0.00 0.00 87 1017.9
20260506114218 12 71 3.2 6.4 0.00 0.00 0.00 87 1017.9
20260506113503 12 214 3.2 9.7 0.00 0.00 0.00 87 1017.5
20260506113003 12 183 3.2 9.7 0.00 0.00 0.00 87 1017.9
20260506112503 12 103 3.2 6.4 0.00 0.00 0.00 88 1017.5
20260506112217 12 107 3.2 6.4 0.00 0.00 0.00 88 1017.5
20260506111503 12 101 3.2 4.8 0.00 0.00 0.00 88 1017.5
20260506111003 12 105 3.2 6.4 0.00 0.00 0.00 89 1017.2
20260506110503 12 113 3.2 6.4 0.00 0.00 0.00 89 1017.2
20260506110003 12 104 3.2 6.4 0.00 0.00 0.00 89 1017.2
20260506105716 12 102 3.2 6.4 0.00 0.00 0.00 90 1017.2
20260506105003 12 111 3.2 6.4 0.00 0.00 0.00 91 1016.8
20260506104503 12 109 3.2 4.8 0.00 0.00 0.00 91 1017.2
20260506104003 11 104 3.2 4.8 0.00 0.00 0.00 92 1017.2
20260506103503 11 97 3.2 6.4 0.00 0.00 0.00 94 1017.2
20260506103003 11 92 3.2 6.4 0.00 0.00 0.00 95 1016.8
20260506102503 11 94 3.2 4.8 0.00 0.00 0.00 95 1016.8
20260506102003 11 94 3.2 4.8 0.00 0.00 0.00 96 1017.2
20260506101503 11 90 3.2 4.8 0.00 0.00 0.00 96 1016.8
20260506101003 11 91 3.2 4.8 0.00 0.00 0.00 96 1016.8
20260506100503 10 88 3.2 4.8 0.00 0.00 0.00 96 1016.8
20260506100003 10 87 3.2 3.2 0.00 0.00 0.00 95 1016.8
20260506095503 10 87 3.2 3.2 0.00 0.00 0.00 95 1016.8
20260506095003 10 89 3.2 4.8 0.00 0.00 0.00 95 1016.8
20260506094503 10 90 3.2 4.8 0.00 0.00 0.00 95 1016.5
20260506094003 10 92 3.2 4.8 0.00 0.00 0.00 94 1016.5
20260506093718 11 94 3.2 4.8 0.00 0.00 0.00 94 1016.8
20260506093003 11 92 1.6 3.2 0.00 0.00 0.00 94 1016.8
20260506092503 11 94 1.6 3.2 0.00 0.00 0.00 94 1016.8
20260506092003 11 92 1.6 3.2 0.00 0.00 0.00 94 1016.5
20260506091503 11 89 1.6 3.2 0.00 0.00 0.00 94 1016.5
20260506091003 11 84 1.6 3.2 0.00 0.00 0.00 94 1016.5
20260506090503 11 82 1.6 3.2 0.00 0.00 0.00 94 1016.2
20260506090003 11 86 1.6 3.2 0.00 0.00 0.00 94 1016.5
20260506085503 11 89 1.6 3.2 0.00 0.00 0.00 94 1016.5
20260506085003 11 87 1.6 3.2 0.00 0.00 0.00 94 1016.5
20260506084503 11 88 1.6 3.2 0.00 0.00 0.00 93 1016.5
20260506084003 11 93 1.6 4.8 0.00 0.00 0.00 93 1016.2
20260506083718 11 94 1.6 4.8 0.00 0.00 0.00 93 1016.5
20260506083003 11 84 1.6 4.8 0.00 0.00 0.00 94 1016.5
20260506082503 11 85 1.6 3.2 0.00 0.00 0.00 93 1016.2
20260506082003 11 92 1.6 3.2 0.00 0.00 0.00 93 1016.2
20260506081503 11 90 1.6 3.2 0.00 0.00 0.00 93 1016.2
20260506081003 11 92 1.6 3.2 0.00 0.00 0.00 93 1016.2
20260506080503 11 94 3.2 3.2 0.00 0.00 0.00 92 1015.8
20260506073503 11 100 3.2 4.8 0.00 0.00 0.00 92 1015.8
20260506073003 11 98 3.2 4.8 0.00 0.00 0.00 92 1015.8
20260506072503 11 94 1.6 3.2 0.00 0.00 0.00 92 1015.8
20260506072003 11 94 1.6 3.2 0.00 0.00 0.00 92 1015.8
20260506071503 11 85 3.2 3.2 0.00 0.00 0.00 92 1015.8
20260506071003 11 83 3.2 4.8 0.00 0.00 0.00 92 1015.8
20260506070503 11 85 3.2 4.8 0.00 0.00 0.00 91 1015.8
20260506062003 12 87 1.6 3.2 0.00 0.00 0.00 88 1015.5
20260506061503 12 83 3.2 3.2 0.00 0.00 0.00 89 1015.5
20260506061003 12 83 3.2 3.2 0.00 0.00 0.00 89 1015.1
20260506060503 12 85 3.2 3.2 0.00 0.00 0.00 88 1015.1
20260506051003 13 88 1.6 3.2 0.00 0.00 0.00 85 1014.8
20260506050503 13 89 1.6 3.2 0.00 0.00 0.00 85 1014.8
20260506045003 13 90 3.2 4.8 0.00 0.00 0.00 84 1014.5
20260506044718 13 88 3.2 3.2 0.00 0.00 0.00 83 1014.8
20260506044003 13 89 3.2 3.2 0.00 0.00 0.00 82 1014.8
20260506043503 13 88 3.2 3.2 0.00 0.00 0.00 81 1014.8
20260506043217 13 85 3.2 3.2 0.00 0.00 0.00 81 1014.5
20260506042503 14 86 1.6 3.2 0.00 0.00 0.00 80 1014.5
20260506042003 14 88 1.6 3.2 0.00 0.00 0.00 80 1014.5
20260506041503 14 87 1.6 3.2 0.00 0.00 0.00 79 1014.5
20260506041003 14 92 3.2 3.2 0.00 0.00 0.00 78 1014.5
20260506040718 15 90 3.2 4.8 0.00 0.00 0.00 78 1014.5
20260506040003 15 89 1.6 4.8 0.00 0.00 0.00 77 1014.5
20260506035718 15 85 1.6 3.2 0.00 0.00 0.00 76 1014.5
20260506035003 15 81 1.6 3.2 0.00 0.00 0.00 76 1014.5
20260506034503 15 88 1.6 3.2 0.00 0.00 0.00 75 1014.1
20260506034003 15 91 1.6 3.2 0.00 0.00 0.00 74 1014.1
20260506033503 16 86 1.6 3.2 0.00 0.00 0.00 73 1014.1
20260506033216 16 85 1.6 3.2 0.00 0.00 0.00 73 1014.5
20260506032503 16 85 1.6 3.2 0.00 0.00 0.00 72 1014.1
20260506032003 16 85 1.6 3.2 0.00 0.00 0.00 71 1014.1
20260506031717 16 89 1.6 3.2 0.00 0.00 0.00 71 1014.1
20260506031003 16 105 1.6 3.2 0.00 0.00 0.00 69 1014.1
20260506030717 16 113 1.6 4.8 0.00 0.00 0.00 69 1014.1
20260506030003 16 153 1.6 4.8 0.00 0.00 0.00 69 1014.1
20260506025503 17 164 1.6 6.4 0.00 0.00 0.00 68 1014.1
20260506025003 17 203 3.2 6.4 0.00 0.00 0.00 67 1014.1
20260506024503 17 203 3.2 8.0 0.00 0.00 0.00 67 1014.1
20260506024218 17 200 3.2 8.0 0.00 0.00 0.00 67 1014.1
20260506023503 17 210 3.2 8.0 0.00 0.00 0.00 66 1013.8
20260506023003 17 205 3.2 6.4 0.00 0.00 0.00 65 1014.1
20260506022717 17 194 1.6 6.4 0.00 0.00 0.00 64 1014.1
20260506022218 18 171 1.6 6.4 0.00 0.00 0.00 64 1013.8
20260506021503 17 194 3.2 6.4 0.00 0.00 0.00 65 1013.8
20260506021003 17 209 3.2 8.0 0.00 0.00 0.00 65 1014.1
20260506020503 17 216 4.8 8.0 0.00 0.00 0.00 64 1014.1
20260506020003 18 202 3.2 8.0 0.00 0.00 0.00 64 1013.8